Time,TemperatureF,DewpointF,PressureIn,WindDirection,WindDirectionDegrees,WindSpeedMPH,WindSpeedGustMPH,Humidity,HourlyPrecipIn,Conditions,Clouds,dailyrainin,SoftwareType,DateUTC
2013-10-26 00:02:00,35.0,25.0,-100.00,SW,216,0.0,3.0,66,0.00,,,0.00,,2013-10-26 07:02:00,
2013-10-26 00:11:00,35.0,25.0,-100.00,SW,216,0.0,3.0,66,0.00,,,0.00,,2013-10-26 07:11:00,
2013-10-26 00:42:00,34.0,26.0,-100.00,ESE,112,0.0,0.0,73,0.00,,,0.00,,2013-10-26 07:42:00,
2013-10-26 00:52:00,34.0,26.0,-100.00,ESE,112,0.0,0.0,73,0.00,,,0.00,,2013-10-26 07:52:00,
2013-10-26 01:02:00,34.0,26.0,-100.00,ESE,112,0.0,0.0,73,0.00,,,0.00,,2013-10-26 08:02:00,
2013-10-26 01:11:00,34.0,26.0,-100.00,ESE,112,0.0,0.0,73,0.00,,,0.00,,2013-10-26 08:11:00,
2013-10-26 01:42:00,33.0,26.0,-100.00,ESE,112,0.0,4.0,74,0.00,,,0.00,,2013-10-26 08:42:00,
2013-10-26 01:52:00,33.0,26.0,-100.00,ESE,112,0.0,4.0,74,0.00,,,0.00,,2013-10-26 08:52:00,
2013-10-26 02:02:00,33.0,26.0,-100.00,ESE,112,0.0,4.0,74,0.00,,,0.00,,2013-10-26 09:02:00,
2013-10-26 02:11:00,33.0,26.0,-100.00,ESE,112,0.0,4.0,74,0.00,,,0.00,,2013-10-26 09:11:00,
2013-10-26 02:43:00,32.0,27.0,-100.00,SE,127,1.0,2.0,80,0.00,,,0.00,,2013-10-26 09:43:00,
2013-10-26 02:53:00,32.0,27.0,-100.00,SE,127,1.0,2.0,80,0.00,,,0.00,,2013-10-26 09:53:00,
2013-10-26 03:03:00,32.0,27.0,-100.00,SE,127,1.0,2.0,80,0.00,,,0.00,,2013-10-26 10:03:00,
2013-10-26 03:13:00,32.0,27.0,-100.00,SE,127,1.0,2.0,80,0.00,,,0.00,,2013-10-26 10:13:00,
2013-10-26 03:42:00,34.0,27.0,-100.00,ESE,119,2.0,4.0,76,0.00,,,0.00,,2013-10-26 10:42:00,
2013-10-26 03:53:00,34.0,27.0,-100.00,ESE,119,2.0,4.0,76,0.00,,,0.00,,2013-10-26 10:53:00,
2013-10-26 04:03:00,34.0,27.0,-100.00,ESE,119,2.0,4.0,76,0.00,,,0.00,,2013-10-26 11:03:00,
2013-10-26 04:11:00,34.0,27.0,-100.00,ESE,119,2.0,4.0,76,0.00,,,0.00,,2013-10-26 11:11:00,
2013-10-26 04:42:00,32.0,27.0,-100.00,SE,138,0.0,4.0,80,0.00,,,0.00,,2013-10-26 11:42:00,
2013-10-26 04:52:00,32.0,27.0,-100.00,SE,138,0.0,4.0,80,0.00,,,0.00,,2013-10-26 11:52:00,
2013-10-26 05:01:00,32.0,27.0,-100.00,SE,138,0.0,4.0,80,0.00,,,0.00,,2013-10-26 12:01:00,
2013-10-26 05:12:00,32.0,27.0,-100.00,SE,138,0.0,4.0,80,0.00,,,0.00,,2013-10-26 12:12:00,
2013-10-26 05:42:00,30.0,25.0,-100.00,SW,219,0.0,0.0,83,0.00,,,0.00,,2013-10-26 12:42:00,
2013-10-26 05:52:00,30.0,25.0,-100.00,SW,219,0.0,0.0,83,0.00,,,0.00,,2013-10-26 12:52:00,
2013-10-26 06:01:00,30.0,25.0,-100.00,SW,219,0.0,0.0,83,0.00,,,0.00,,2013-10-26 13:01:00,
2013-10-26 06:11:00,30.0,25.0,-100.00,SW,219,0.0,0.0,83,0.00,,,0.00,,2013-10-26 13:11:00,
2013-10-26 06:42:00,29.0,25.0,-100.00,WNW,298,1.0,2.0,84,0.00,,,0.00,,2013-10-26 13:42:00,
2013-10-26 06:52:00,29.0,25.0,-100.00,WNW,298,1.0,2.0,84,0.00,,,0.00,,2013-10-26 13:52:00,
2013-10-26 07:01:00,29.0,25.0,-100.00,WNW,298,1.0,2.0,84,0.00,,,0.00,,2013-10-26 14:01:00,
2013-10-26 07:11:00,29.0,25.0,-100.00,WNW,298,1.0,2.0,84,0.00,,,0.00,,2013-10-26 14:11:00,
2013-10-26 07:42:00,29.0,25.0,-100.00,SE,133,0.0,0.0,86,0.00,,,0.00,,2013-10-26 14:42:00,
2013-10-26 07:52:00,29.0,25.0,-100.00,SE,133,0.0,0.0,86,0.00,,,0.00,,2013-10-26 14:52:00,
2013-10-26 08:02:00,29.0,25.0,-100.00,SE,133,0.0,0.0,86,0.00,,,0.00,,2013-10-26 15:02:00,
2013-10-26 08:12:00,29.0,25.0,-100.00,SE,133,0.0,0.0,86,0.00,,,0.00,,2013-10-26 15:12:00,
2013-10-26 09:14:00,42.0,35.0,-100.00,SSE,150,0.0,0.0,77,0.00,,,0.00,,2013-10-26 16:14:00,
2013-10-26 09:53:00,57.0,30.0,-100.00,NE,40,5.0,10.0,36,0.00,,,0.00,,2013-10-26 16:53:00,
2013-10-26 10:03:00,57.0,30.0,-100.00,NE,40,5.0,10.0,36,0.00,,,0.00,,2013-10-26 17:03:00,
2013-10-26 10:12:00,57.0,30.0,-100.00,NE,40,5.0,10.0,36,0.00,,,0.00,,2013-10-26 17:12:00,
2013-10-26 10:43:00,62.0,30.0,-100.00,NE,52,5.0,11.0,30,0.00,,,0.00,,2013-10-26 17:43:00,
2013-10-26 10:52:00,62.0,30.0,-100.00,NE,52,5.0,11.0,30,0.00,,,0.00,,2013-10-26 17:52:00,
2013-10-26 11:02:00,62.0,30.0,-100.00,NE,52,5.0,11.0,30,0.00,,,0.00,,2013-10-26 18:02:00,
2013-10-26 11:12:00,62.0,30.0,-100.00,NE,52,5.0,11.0,30,0.00,,,0.00,,2013-10-26 18:12:00,
2013-10-26 11:42:00,65.0,31.0,-100.00,North,359,5.0,14.0,28,0.00,,,0.00,,2013-10-26 18:42:00,
2013-10-26 11:52:00,65.0,31.0,-100.00,North,359,5.0,14.0,28,0.00,,,0.00,,2013-10-26 18:52:00,
2013-10-26 12:01:00,65.0,31.0,-100.00,North,359,5.0,14.0,28,0.00,,,0.00,,2013-10-26 19:01:00,
2013-10-26 12:12:00,65.0,31.0,-100.00,North,359,5.0,14.0,28,0.00,,,0.00,,2013-10-26 19:12:00,
2013-10-26 12:42:00,65.0,25.0,-100.00,NNE,26,6.0,14.0,22,0.00,,,-99.99,,2013-10-26 19:42:00,
2013-10-26 12:52:00,65.0,25.0,-100.00,NNE,26,6.0,14.0,22,0.00,,,-99.99,,2013-10-26 19:52:00,
2013-10-26 13:02:00,65.0,25.0,-100.00,NNE,26,6.0,14.0,22,0.00,,,-99.99,,2013-10-26 20:02:00,
2013-10-26 13:12:00,65.0,25.0,-100.00,NNE,26,6.0,14.0,22,0.00,,,-99.99,,2013-10-26 20:12:00,
2013-10-26 13:43:00,67.0,26.0,-100.00,West,280,6.0,12.0,21,0.00,,,0.00,,2013-10-26 20:43:00,
2013-10-26 13:52:00,67.0,26.0,-100.00,West,280,6.0,12.0,21,0.00,,,0.00,,2013-10-26 20:52:00,
2013-10-26 14:02:00,67.0,26.0,-100.00,West,280,6.0,12.0,21,0.00,,,0.00,,2013-10-26 21:02:00,
2013-10-26 14:11:00,67.0,26.0,-100.00,West,280,6.0,12.0,21,0.00,,,0.00,,2013-10-26 21:11:00,
2013-10-26 14:43:00,67.0,27.0,-100.00,SSW,206,5.0,10.0,22,0.00,,,0.00,,2013-10-26 21:43:00,
2013-10-26 14:54:00,67.0,27.0,-100.00,SSW,206,5.0,10.0,22,0.00,,,0.00,,2013-10-26 21:54:00,
2013-10-26 15:03:00,67.0,27.0,-100.00,SSW,206,5.0,10.0,22,0.00,,,0.00,,2013-10-26 22:03:00,
2013-10-26 15:13:00,67.0,27.0,-100.00,SSW,206,5.0,10.0,22,0.00,,,0.00,,2013-10-26 22:13:00,
2013-10-26 15:44:00,62.0,28.0,-100.00,ESE,119,4.0,7.0,27,0.00,,,0.00,,2013-10-26 22:44:00,
2013-10-26 15:54:00,62.0,28.0,-100.00,ESE,119,4.0,7.0,27,0.00,,,0.00,,2013-10-26 22:54:00,
2013-10-26 16:03:00,62.0,28.0,-100.00,ESE,119,4.0,7.0,27,0.00,,,0.00,,2013-10-26 23:03:00,
2013-10-26 16:12:00,62.0,28.0,-100.00,ESE,119,4.0,7.0,27,0.00,,,0.00,,2013-10-26 23:12:00,
2013-10-26 16:42:00,62.0,29.0,-100.00,SE,140,4.0,11.0,28,0.00,,,0.00,,2013-10-26 23:42:00,
2013-10-26 16:52:00,62.0,29.0,-100.00,SE,140,4.0,11.0,28,0.00,,,0.00,,2013-10-26 23:52:00,
2013-10-26 17:01:00,62.0,29.0,-100.00,SE,140,4.0,11.0,28,0.00,,,0.00,,2013-10-27 00:01:00,
2013-10-26 17:11:00,62.0,29.0,-100.00,SE,140,4.0,11.0,28,0.00,,,0.00,,2013-10-27 00:11:00,
2013-10-26 17:42:00,60.0,26.0,-100.00,SE,135,4.0,10.0,27,0.00,,,0.00,,2013-10-27 00:42:00,
2013-10-26 17:52:00,60.0,26.0,-100.00,SE,135,4.0,10.0,27,0.00,,,0.00,,2013-10-27 00:52:00,
2013-10-26 18:01:00,60.0,26.0,-100.00,SE,135,4.0,10.0,27,0.00,,,0.00,,2013-10-27 01:01:00,
2013-10-26 18:11:00,60.0,26.0,-100.00,SE,135,4.0,10.0,27,0.00,,,0.00,,2013-10-27 01:11:00,
2013-10-26 18:42:00,53.0,24.0,-100.00,ESE,120,4.0,10.0,32,0.00,,,0.00,,2013-10-27 01:42:00,
2013-10-26 18:52:00,53.0,24.0,-100.00,ESE,120,4.0,10.0,32,0.00,,,0.00,,2013-10-27 01:52:00,
2013-10-26 19:02:00,53.0,24.0,-100.00,ESE,120,4.0,10.0,32,0.00,,,0.00,,2013-10-27 02:02:00,
2013-10-26 19:12:00,53.0,24.0,-100.00,ESE,120,4.0,10.0,32,0.00,,,0.00,,2013-10-27 02:12:00,
2013-10-26 19:42:00,47.0,22.0,-100.00,East,87,3.0,9.0,37,0.00,,,0.00,,2013-10-27 02:42:00,
2013-10-26 19:52:00,47.0,22.0,-100.00,East,87,3.0,9.0,37,0.00,,,0.00,,2013-10-27 02:52:00,
2013-10-26 20:02:00,47.0,22.0,-100.00,East,87,3.0,9.0,37,0.00,,,0.00,,2013-10-27 03:02:00,
2013-10-26 20:11:00,47.0,22.0,-100.00,East,87,3.0,9.0,37,0.00,,,0.00,,2013-10-27 03:11:00,
2013-10-26 20:45:00,46.0,25.0,-100.00,East,94,4.0,9.0,43,0.00,,,0.00,,2013-10-27 03:45:00,
2013-10-26 20:55:00,46.0,25.0,-100.00,East,94,4.0,9.0,43,0.00,,,0.00,,2013-10-27 03:55:00,
2013-10-26 21:02:00,-999.0,-99.9,-100.00,East,94,4.0,9.0,-999,-99.99,,,-99.99,,2013-10-27 04:02:00,
2013-10-26 21:13:00,46.0,25.0,-100.00,East,94,4.0,9.0,43,0.00,,,0.00,,2013-10-27 04:13:00,
2013-10-26 21:44:00,51.0,26.0,-100.00,SSE,148,6.0,12.0,38,0.00,,,0.00,,2013-10-27 04:44:00,
2013-10-26 22:52:00,51.0,27.0,-100.00,SE,146,6.0,12.0,39,0.00,,,0.00,,2013-10-27 05:52:00,
2013-10-26 23:01:00,51.0,27.0,-100.00,SE,146,6.0,12.0,39,0.00,,,0.00,,2013-10-27 06:01:00,
2013-10-26 23:42:00,51.0,28.0,-100.00,SSE,151,6.0,13.0,40,-99.99,,,0.00,,2013-10-27 06:42:00,
2013-10-26 23:53:00,51.0,28.0,-100.00,SSE,151,6.0,13.0,40,-99.99,,,0.00,,2013-10-27 06:53:00,